Temp
55 55 55 54 53 52 58 78 73 85 88 73 78 75 81 64 82 84 83 81 80 80 81 80 81 82 87 92 93 85 90 85 76 81 92 93 90 85 84 75 71 78 76 71
55 55 55 54 53 52 64 75 80 86 85 70 76 80 79 79 81 81 81 81 82 82 77 74 82 83 89 89 89 86 89 80 72 75 85 89 83 87 87 85 81 72 70 74
55 55 55 54 53 53 61 74 70 77 79 82 73 75 72 73 82 82 83 82 82 79 78 81 78 81 84 87 90 72 81 81 76 74 72 81 78 83 86 83 75 76 79 81
55 55 55 54 53 53 63 78 74 74 69 74 75 76 75 74 72 80 81 78 78 78 74 77 75 83 84 86 73 83 85 73 80 82 85 86 84 83 85 81 82 76 80 70
55 55 55 54 53 52 70 69 71 78 77 71 72 64 71 72 77 76 74 74 80 80 74 77 76 82 81 81 86 84 85 73 78 77 84 85 81 84 84 85 84 84 85 77
55 55 55 54 52 55 75 75 78 73 63 71 70 73 73 73 77 77 80 80 80 76 78 84 84 84 82 82 79 79 79 76 73 69 80 81 74 81 83 85 88 86 80 86
55 55 55 54 53 53 67 70 70 70 69 72 73 73 73 72 72 71 78 77 75 77 83 83 84 85 84 83 81 83 74 73 74 71 74 63 81 91 90 86 88 90 90 88
55 55 55 55 54 53 66 71 69 69 67 76 72 70 71 74 72 70 72 77 79 81 79 73 69 72 72 77 81 80 81 74 71 67 67 75 81 85 85 83 82 92 90 91
55 55 55 55 54 53 64 70 69 69 66 70 71 71 72 70 71 72 73 79 80 78 76 72 61 62 68 68 73 82 80 76 71 70 63 60 78 88 92 89 74 91 87 90
54 55 55 55 55 53 58 70 67 67 65 74 70 69 69 74 73 72 75 75 73 78 69 67 67 68 76 68 67 68 71 70 66 67 65 71 84 87 89 71 74 85 87 88
54 54 54 55 55 54 57 69 67 64 66 72 70 71 69 72 71 68 72 72 72 73 65 67 70 70 74 72 74 72 68 65 66 68 65 61 85 84 76 75 81 82 85 85
54 54 54 54 54 54 55 67 73 71 62 69 71 72 74 72 72 69 74 70 70 78 71 72 74 71 74 68 64 77 67 75 72 73 73 78 82 79 79 81 80 80 82 85
54 54 54 54 54 53 54 62 67 67 64 70 71 70 76 79 77 80 66 75 71 71 73 72 74 67 76 67 69 72 76 81 73 74 80 78 79 82 80 80 80 83 85 85
53 53 54 54 53 53 53 62 67 66 65 62 67 77 71 76 78 76 75 72 73 73 75 71 71 69 77 71 73 72 76 74 74 74 76 79 79 78 78 78 80 82 85 84
53 53 53 53 53 52 56 64 69 71 61 60 67 73 75 76 74 72 74 71 68 71 70 69 68 76 72 74 76 73 78 72 64 67 73 72 72 77 79 78 78 80 78 76
52 52 52 52 52 52 59 62 70 75 69 60 63 74 70 73 72 71 70 72 70 71 71 71 75 75 71 66 67 75 77 77 78 72 76 76 77 78 80 78 79 80 77 74
52 52 52 52 51 58 56 54 58 56 67 61 63 65 72 74 73 73 72 72 72 72 71 69 71 73 70 66 64 70 69 75 76 76 76 74 78 77 81 81 79 76 77 72
52 52 51 51 51 53 57 64 54 57 62 65 59 60 67 74 69 67 75 70 71 71 69 72 70 72 70 61 69 74 73 74 74 76 78 78 81 80 80 80 79 78 72 70
51 51 51 58 57 55 59 55 55 65 60 58 63 59 53 74 66 67 68 73 65 74 67 68 70 67 61 67 69 71 74 71 71 74 76 78 77 71 76 78 78 76 74 69
51 54 56 50 58 53 56 58 55 57 60 63 60 73 58 71 69 65 62 66 62 57 62 73 64 65 72 74 74 73 72 72 74 70 70 74 72 72 74 74 74 78 77 73
58 57 52 61 54 62 55 51 53 54 54 63 66 69 60 74 58 59 67 57 62 54 60 62 60 62 69 74 71 73 73 73 74 74 74 76 76 69 72 70 74 72 77 75
53 54 60 68 59 51 48 51 58 54 51 64 60 64 69 62 71 58 60 59 63 55 68 61 58 55 65 68 66 65 71 73 73 74 73 75 76 78 78 74 76 76 78 75
62 57 56 53 50 38 44 46 53 50 60 62 62 57 68 68 70 61 61 55 57 70 56 57 55 60 63 63 65 64 65 69 73 73 74 75 76 77 78 77 79 78 71 79
55 52 35 48 48 53 60 60 55 65 65 65 62 58 62 66 57 60 53 62 63 52 51 50 60 60 62 64 66 65 63 64 66 69 73 73 74 76 77 79 81 79 72 78
54 57 40 52 60 64 58 61 61 63 65 61 61 62 60 58 55 59 59 53 50 51 48 56 61 61 60 61 64 63 62 62 63 67 69 70 71 73 74 77 80 81 80 79
57 56 53 60 56 56 62 64 57 69 65 63 61 55 52 52 56 52 51 51 51 52 61 63 63 60 60 60 61 58 56 57 57 61 65 66 68 70 71 78 79 79 78 74
53 56 62 60 60 58 60 62 60 68 60 56 55 47 50 57 53 51 60 53 55 56 59 61 59 57 57 57 54 54 56 55 57 58 61 62 66 70 69 66 69 72 71 69
MSLP
1022.89 1022.22 1021.41 1020.55 1019.55 1017.78 1015.81 1013.25 1010.38 1010.99 1010.96 1010.05 1008.18 1006.47 1005.20 1005.37 1005.04 1005.45 1004.41 1003.93 1003.18 1002.32 1002.14 1001.74 1000.96 1000.59 1000.56 1001.37 1001.37 1001.59 1001.75 1001.66 1001.24 1000.87 1000.38 1000.63 1000.70 1000.41 1000.60 1000.33 1000.47 1000.21 1000.03 1000.31
1022.85 1022.12 1021.41 1020.66 1019.90 1019.28 1017.22 1012.48 1010.25 1010.68 1010.29 1008.04 1006.49 1005.97 1005.42 1005.86 1005.34 1005.08 1004.56 1003.98 1003.90 1003.75 1003.27 1002.64 1001.87 1001.57 1002.10 1002.72 1002.25 1002.04 1001.98 1002.07 1001.58 1001.27 1000.56 1000.59 1000.90 1000.61 1000.62 1000.63 1000.87 1000.59 1000.28 999.74
1022.83 1022.13 1021.35 1020.53 1019.77 1019.21 1018.22 1013.00 1009.89 1009.82 1009.80 1007.90 1007.28 1005.91 1006.34 1006.13 1006.00 1005.29 1005.18 1004.47 1004.64 1004.35 1003.80 1003.74 1002.94 1002.48 1003.16 1003.55 1003.08 1003.52 1003.20 1002.42 1001.85 1000.41 1001.06 1001.10 1000.41 1000.41 1000.32 1000.47 1000.47 1000.14 999.82 999.52
1023.01 1022.31 1021.49 1020.50 1019.44 1018.58 1017.83 1012.49 1009.76 1009.78 1008.44 1007.76 1007.41 1006.59 1006.25 1005.98 1005.98 1006.39 1006.13 1005.56 1005.27 1004.70 1004.17 1003.79 1003.75 1003.17 1003.39 1004.05 1004.19 1004.15 1003.90 1003.21 1002.42 1001.67 1000.91 1000.34 1000.05 999.72 999.61 999.88 1000.22 1000.09 999.75 1001.34
1023.21 1022.46 1021.67 1020.74 1019.42 1018.03 1016.28 1013.46 1011.37 1010.41 1009.02 1008.95 1008.09 1007.61 1006.94 1006.43 1005.83 1006.02 1006.03 1005.90 1005.41 1005.24 1005.13 1004.55 1004.08 1003.75 1003.85 1003.56 1003.93 1004.06 1004.08 1003.72 1003.21 1001.89 1001.03 1000.36 1000.00 999.91 999.82 999.40 999.66 999.69 999.70 1000.34
1023.36 1022.70 1022.07 1021.32 1020.31 1018.19 1015.33 1014.68 1013.24 1012.14 1009.87 1009.30 1008.47 1007.15 1007.07 1007.04 1006.50 1006.96 1006.64 1006.02 1005.77 1006.06 1006.06 1005.62 1005.52 1005.55 1005.48 1005.24 1005.04 1004.54 1004.38 1004.14 1003.77 1002.49 1001.57 1000.45 999.94 999.79 999.50 999.29 999.04 999.13 999.14 999.45
1023.55 1023.01 1022.43 1021.88 1021.32 1020.87 1018.43 1016.78 1015.45 1012.56 1009.67 1008.93 1008.26 1007.88 1007.96 1007.93 1008.50 1007.98 1007.53 1007.80 1007.36 1008.04 1007.90 1007.50 1007.10 1006.50 1006.05 1005.96 1005.82 1005.85 1005.45 1004.95 1004.23 1003.01 1002.04 1000.42 999.69 999.19 999.14 999.03 999.03 998.99 999.10 999.51
1023.87 1023.36 1022.82 1022.32 1021.81 1021.15 1018.90 1017.59 1016.29 1013.75 1011.03 1009.52 1009.19 1009.38 1009.03 1008.98 1009.34 1009.57 1008.78 1008.53 1008.87 1009.07 1008.34 1007.69 1007.02 1006.38 1006.06 1005.50 1005.46 1005.64 1005.76 1005.75 1004.55 1003.75 1002.61 1001.16 999.96 999.75 999.81 999.65 999.54 999.06 998.95 999.17
1024.10 1023.67 1023.29 1022.74 1022.20 1021.56 1019.79 1018.27 1018.04 1015.89 1013.22 1010.89 1011.14 1010.13 1009.94 1009.33 1009.25 1009.17 1009.22 1009.35 1010.11 1009.79 1008.45 1007.37 1006.33 1005.25 1004.74 1004.47 1004.66 1004.89 1005.34 1005.96 1005.74 1004.32 1003.17 1001.86 1000.60 1000.07 999.88 1000.54 1000.34 999.78 999.69 999.51
1024.30 1023.92 1023.52 1023.07 1022.64 1022.21 1021.15 1018.60 1018.97 1017.10 1014.46 1012.59 1012.82 1011.75 1010.94 1010.56 1009.77 1008.88 1008.78 1009.30 1009.90 1009.65 1008.63 1006.90 1005.54 1004.71 1004.26 1003.61 1003.60 1004.04 1004.65 1005.17 1005.16 1004.69 1003.75 1002.79 1002.12 1001.52 1001.92 1001.76 1002.13 1002.18 1001.94 1001.70
1024.43 1024.12 1023.72 1023.30 1022.92 1022.45 1021.46 1018.87 1019.34 1018.37 1015.55 1013.79 1013.97 1013.48 1012.77 1011.89 1011.63 1010.37 1009.93 1010.41 1010.10 1008.98 1008.46 1007.09 1005.56 1004.51 1003.71 1003.65 1003.47 1003.53 1004.27 1004.75 1004.68 1004.65 1003.97 1003.36 1003.17 1003.12 1003.21 1004.36 1003.93 1003.60 1003.14 1003.22
1024.45 1024.21 1023.92 1023.58 1023.20 1022.76 1022.13 1018.98 1018.74 1018.81 1017.72 1014.87 1015.12 1014.79 1014.50 1014.10 1013.60 1012.94 1011.22 1010.59 1010.07 1009.00 1008.11 1007.31 1005.80 1004.69 1004.33 1004.27 1003.69 1004.20 1004.22 1004.11 1004.08 1003.95 1003.82 1004.60 1004.76 1004.84 1005.39 1005.38 1005.27 1005.17 1004.97 1004.83
1024.42 1024.14 1023.88 1023.58 1023.28 1022.97 1022.62 1020.53 1019.25 1018.23 1016.78 1014.52 1014.01 1013.57 1013.86 1014.31 1014.34 1014.09 1013.14 1011.22 1011.77 1010.94 1010.93 1008.85 1006.53 1005.41 1004.98 1004.32 1004.62 1004.08 1004.50 1004.56 1004.92 1004.77 1004.20 1004.94 1005.78 1005.89 1006.43 1006.53 1006.27 1005.98 1005.71 1005.76
1024.40 1024.12 1023.84 1023.53 1023.23 1022.96 1022.70 1020.55 1019.51 1018.80 1017.15 1014.70 1013.18 1013.81 1013.93 1014.14 1014.01 1014.18 1014.18 1013.89 1013.25 1012.53 1011.14 1009.68 1007.93 1006.77 1006.59 1005.65 1005.21 1005.13 1005.09 1005.89 1005.47 1005.39 1005.70 1005.90 1006.42 1007.20 1007.24 1007.22 1007.03 1006.54 1006.42 1006.66
1024.28 1024.07 1023.80 1023.50 1023.20 1022.89 1022.20 1020.58 1019.40 1019.23 1018.68 1015.43 1013.06 1013.19 1013.50 1013.71 1014.06 1014.13 1014.17 1014.10 1013.83 1012.16 1010.82 1009.94 1008.69 1007.97 1007.81 1007.46 1006.67 1005.65 1005.71 1005.89 1006.79 1006.49 1007.39 1007.52 1007.78 1007.83 1007.85 1007.51 1007.52 1007.49 1007.83 1008.39
1024.11 1023.94 1023.70 1023.41 1023.14 1022.69 1021.40 1019.01 1019.00 1019.10 1018.99 1016.91 1013.04 1012.75 1013.16 1013.46 1013.78 1013.79 1013.85 1013.77 1013.65 1012.77 1010.98 1009.85 1008.98 1009.21 1009.65 1008.38 1006.82 1006.78 1006.87 1007.79 1008.10 1008.06 1008.65 1008.39 1008.32 1008.41 1008.12 1007.94 1007.99 1008.08 1008.65 1009.43
1023.83 1023.68 1023.47 1023.22 1023.01 1022.18 1021.07 1020.89 1020.74 1020.51 1019.26 1016.97 1013.45 1011.79 1012.58 1012.81 1013.17 1013.10 1013.03 1013.31 1012.67 1012.18 1011.17 1010.45 1009.74 1009.37 1010.19 1009.52 1007.79 1008.18 1008.60 1008.82 1008.96 1009.42 1009.23 1008.49 1008.00 1007.88 1008.14 1008.15 1008.66 1008.83 1009.45 1010.60
1023.47 1023.27 1023.04 1022.78 1022.59 1022.24 1021.12 1020.16 1021.11 1020.79 1018.93 1016.71 1013.76 1012.02 1011.78 1012.60 1011.82 1011.63 1011.90 1011.94 1012.04 1011.52 1011.03 1010.11 1009.59 1009.43 1009.73 1009.27 1008.84 1008.47 1009.05 1009.74 1009.91 1009.40 1009.49 1009.17 1008.57 1008.57 1008.27 1008.69 1008.69 1008.82 1009.90 1011.03
1023.10 1022.82 1022.42 1021.68 1021.57 1020.81 1020.31 1020.84 1020.91 1020.05 1019.21 1016.04 1013.40 1011.23 1011.52 1011.81 1011.85 1011.91 1011.97 1011.09 1010.61 1010.32 1010.00 1009.88 1009.61 1009.03 1008.79 1008.79 1009.18 1009.18 1009.14 1009.75 1010.07 1010.11 1009.91 1009.47 1008.97 1009.45 1009.19 1009.06 1009.12 1009.25 1009.98 1011.10
1022.81 1022.38 1021.05 1020.45 1020.12 1020.77 1020.88 1020.76 1019.57 1018.68 1017.56 1016.28 1013.62 1011.51 1011.38 1011.02 1011.04 1011.08 1011.59 1011.29 1010.51 1010.11 1009.86 1009.06 1008.91 1008.41 1008.55 1008.91 1009.33 1009.89 1010.26 1010.59 1010.71 1010.43 1009.77 1009.33 1009.06 1009.53 1009.71 1009.81 1009.72 1009.20 1009.68 1010.97
1021.58 1020.20 1019.80 1019.77 1020.48 1020.16 1019.41 1018.42 1017.65 1017.07 1015.71 1014.36 1012.79 1011.53 1012.03 1011.26 1011.72 1011.56 1011.08 1011.62 1011.10 1010.10 1009.50 1009.14 1008.82 1008.13 1008.01 1009.06 1010.00 1010.78 1011.05 1011.24 1011.11 1010.90 1010.68 1010.16 1009.66 1009.98 1009.96 1010.00 1010.19 1010.23 1009.58 1010.79
1021.41 1020.97 1019.77 1019.01 1019.10 1019.04 1018.08 1016.83 1015.78 1015.12 1014.08 1012.89 1012.40 1011.89 1011.49 1012.36 1011.92 1012.28 1011.94 1010.73 1010.26 1009.23 1009.26 1009.54 1009.00 1010.81 1010.86 1010.94 1011.62 1011.98 1011.65 1011.24 1011.03 1010.97 1010.75 1010.42 1010.00 1009.52 1009.39 1009.45 1009.39 1009.85 1009.47 1010.48
1020.51 1020.20 1018.71 1018.29 1018.28 1017.77 1016.43 1014.86 1013.99 1013.96 1013.10 1013.51 1013.09 1012.70 1011.79 1012.07 1012.03 1012.07 1011.51 1010.82 1009.81 1009.46 1009.79 1009.47 1010.91 1011.85 1012.27 1012.56 1012.51 1012.81 1012.80 1012.20 1011.41 1011.01 1010.80 1010.51 1010.09 1009.74 1009.30 1009.12 1009.06 1009.08 1009.40 1009.54
1018.97 1018.24 1018.30 1017.14 1015.94 1015.15 1013.62 1013.73 1014.01 1013.63 1013.57 1013.31 1012.99 1012.89 1012.13 1012.34 1012.49 1011.92 1011.32 1010.48 1010.38 1010.39 1009.90 1010.56 1011.77 1012.53 1012.83 1013.05 1013.09 1013.06 1013.03 1012.87 1012.34 1011.45 1010.89 1010.70 1010.24 1009.56 1009.30 1008.83 1008.60 1008.67 1008.97 1008.99
1018.01 1017.09 1016.57 1015.28 1014.32 1013.93 1014.39 1014.13 1013.88 1013.87 1013.70 1013.75 1013.28 1012.96 1013.00 1012.72 1012.38 1011.74 1011.32 1011.06 1010.46 1010.55 1011.35 1012.07 1012.50 1013.16 1013.63 1013.50 1013.33 1013.45 1013.58 1013.41 1012.93 1012.23 1011.62 1011.21 1010.68 1010.06 1009.57 1009.01 1008.40 1008.29 1008.59 1009.26
1017.62 1016.76 1015.57 1014.58 1014.31 1014.05 1013.59 1013.55 1014.01 1013.71 1013.76 1013.80 1013.64 1013.54 1013.16 1012.78 1012.15 1011.80 1011.23 1010.60 1010.48 1011.70 1012.21 1012.41 1012.78 1013.41 1013.61 1013.55 1013.52 1013.77 1014.12 1013.76 1013.43 1013.04 1012.15 1011.79 1011.25 1010.50 1009.55 1008.65 1008.71 1008.71 1009.17 1010.16
1016.87 1015.58 1015.05 1014.62 1014.34 1014.06 1013.84 1014.30 1014.39 1013.91 1013.97 1013.93 1013.97 1013.89 1013.01 1012.76 1012.24 1011.75 1010.86 1011.36 1012.21 1012.65 1012.96 1013.25 1013.70 1014.12 1014.06 1013.79 1013.78 1013.75 1013.60 1013.49 1013.12 1012.86 1012.30 1011.93 1011.34 1010.87 1010.65 1010.57 1010.56 1010.70 1011.23 1011.74
Wind_Speed
18 20 22 24 26 32 10 7 5 6 7 10 11 13 16 4 7 9 8 5 7 4 5 8 12 16 8 5 7 17 16 8 10 14 10 6 11 12 12 10 13 11 12 5
19 20 22 23 23 21 9 6 3 5 8 9 10 13 7 3 13 10 9 9 5 3 5 7 9 8 13 4 9 4 9 8 11 13 12 14 11 14 13 9 12 11 13 3
20 21 22 24 24 20 7 6 6 5 8 10 10 14 11 12 7 10 7 6 1 7 8 5 6 7 6 4 10 9 5 11 11 14 5 12 14 14 13 14 12 13 16 12
21 21 23 25 27 25 6 5 3 7 8 11 11 6 7 16 11 13 10 9 11 10 8 10 7 12 9 9 5 6 9 12 14 17 18 12 11 12 14 13 15 18 9 8
20 21 22 24 29 32 7 7 6 3 4 6 7 8 10 12 14 7 10 14 13 11 9 10 10 11 9 10 12 13 9 8 13 16 15 14 13 12 14 16 13 19 22 6
19 20 21 22 26 26 5 6 4 7 7 9 10 9 9 10 4 7 11 9 13 8 5 10 10 11 7 7 8 7 8 10 11 12 17 20 14 15 15 16 14 16 12 6
18 19 20 20 19 20 10 5 7 7 7 7 9 4 3 5 7 8 8 3 7 9 5 5 9 13 12 12 10 9 8 8 11 11 14 17 9 8 9 11 15 15 13 6
15 17 18 18 17 20 11 5 6 6 9 3 5 6 6 9 6 8 4 6 8 7 5 7 10 11 13 17 17 15 12 10 9 12 12 15 15 7 10 11 13 15 13 7
14 15 16 17 17 19 12 6 6 6 8 3 10 6 9 8 10 11 7 3 2 6 9 11 13 11 12 11 15 18 16 12 11 12 14 18 14 9 7 3 12 11 14 6
14 14 15 16 17 17 12 3 7 6 8 6 6 5 7 7 11 7 9 9 7 10 9 11 11 14 15 13 14 12 14 13 15 13 14 12 16 7 2 11 3 10 9 10
11 12 13 15 16 17 12 4 4 6 6 5 4 5 8 5 6 9 6 3 9 7 12 12 9 10 9 15 12 13 13 13 12 13 16 18 3 7 10 7 5 11 10 9
9 10 12 13 13 15 15 4 2 4 6 7 6 8 10 10 8 9 1 6 8 3 7 10 7 11 6 4 10 8 7 8 5 6 8 8 6 8 6 5 6 5 6 5
11 10 11 12 12 13 11 7 5 6 6 8 9 7 8 9 10 8 7 4 8 3 6 8 7 6 4 8 12 8 15 7 7 7 7 9 6 6 11 8 8 7 4 2
10 11 11 11 12 12 12 7 5 6 6 7 7 5 7 1 8 9 8 8 7 7 8 8 8 6 7 11 7 10 7 3 11 11 8 1 10 9 9 7 6 4 5 6
9 11 11 12 12 12 9 9 4 2 7 7 5 5 4 8 7 9 9 7 7 9 7 7 8 10 4 7 12 9 4 2 4 3 10 8 5 8 7 6 6 6 5 4
9 10 12 12 11 12 6 6 4 1 4 6 5 7 5 6 7 8 7 7 7 8 8 6 8 6 4 7 12 16 3 4 9 7 9 6 5 2 5 5 5 3 7 3
10 11 12 12 10 8 5 7 6 7 5 6 5 6 8 6 8 7 7 7 6 7 8 8 7 5 6 11 13 8 10 6 3 5 7 9 2 6 6 4 3 3 10 7
11 13 13 14 11 11 5 1 8 8 5 5 6 4 8 10 8 7 6 6 6 6 7 6 7 6 6 8 14 14 6 2 7 8 4 8 8 5 2 3 1 3 10 8
12 15 15 6 6 2 2 4 4 5 5 5 5 6 4 8 5 4 4 5 7 6 9 10 6 7 8 6 11 12 5 5 9 12 10 12 6 6 6 5 4 2 6 10
13 8 5 3 2 7 4 5 5 6 5 5 8 3 1 6 2 6 6 4 4 2 7 7 9 10 8 9 8 4 6 5 9 10 9 9 6 3 4 5 10 5 6 9
5 5 2 5 5 4 5 3 5 5 5 6 7 2 1 3 4 2 1 2 4 5 5 5 6 8 8 9 4 3 5 8 9 9 9 10 9 4 6 6 9 10 8 10
4 3 3 3 3 4 5 4 4 5 3 3 2 3 4 2 3 3 4 4 3 5 5 3 7 6 8 9 8 10 11 8 8 9 10 11 11 9 8 5 9 10 5 10
5 5 5 2 4 1 6 8 5 4 4 0 1 5 3 1 3 4 4 5 6 3 4 6 5 4 5 5 5 6 9 12 12 10 9 11 12 12 11 9 8 6 9 9
5 5 1 5 6 6 1 1 2 1 2 2 3 2 1 2 4 3 5 3 3 4 5 3 1 4 3 5 7 9 10 13 16 13 11 10 13 11 10 12 11 10 7 10
5 4 4 8 6 2 4 2 3 2 2 2 4 1 3 2 4 4 2 4 6 1 3 1 1 5 6 9 9 11 10 12 12 14 11 10 12 11 11 12 12 8 8 10
4 4 6 5 3 6 4 4 6 2 1 4 3 3 3 3 3 3 5 5 5 3 2 4 6 7 9 11 11 8 10 12 11 12 12 10 11 13 13 7 8 6 5 7
4 4 5 4 1 4 3 2 1 4 1 2 2 3 5 3 2 4 5 6 6 6 6 6 10 13 14 14 8 10 10 10 10 10 10 10 6 2 3 5 7 8 7 10
Wind_Direction
357 350 347 347 347 338 279 284 229 132 198 205 218 224 239 28 222 219 244 294 278 274 218 225 263 227 191 194 237 201 222 224 251 229 245 225 293 293 225 252 228 270 291 159
352 351 349 347 349 356 313 268 47 165 235 224 212 223 259 188 228 222 213 228 256 219 230 266 246 240 82 166 245 235 205 228 240 243 244 197 243 243 252 269 280 262 281 36
356 353 350 347 345 350 295 274 193 149 211 280 298 216 221 204 248 261 241 262 237 206 221 213 210 241 136 211 260 21 359 255 249 266 93 276 194 243 239 229 243 245 238 264
357 355 352 348 344 343 283 246 360 3 192 214 229 275 228 217 182 240 206 212 233 218 226 199 226 229 166 213 122 221 235 249 261 260 278 275 266 251 220 229 239 255 273 68
357 356 355 352 345 338 253 313 331 198 334 342 242 153 220 242 224 196 213 242 208 229 240 238 222 210 227 225 179 230 226 243 260 279 269 260 257 246 261 275 235 247 259 202
359 357 359 359 354 340 337 2 247 276 118 198 235 188 215 235 269 184 302 212 242 215 233 319 23 330 347 345 307 250 238 241 248 257 252 248 231 242 257 251 244 251 268 297
359 358 0 1 359 359 308 20 287 272 256 236 209 265 201 229 198 292 198 281 249 45 322 280 265 262 250 247 243 244 268 245 265 268 273 255 244 268 305 249 260 254 252 241
353 355 360 360 360 351 317 5 322 309 284 269 157 256 220 236 119 246 235 212 31 329 284 252 234 228 235 235 231 224 225 258 257 255 259 274 265 182 234 246 259 263 245 229
347 357 1 357 1 353 314 55 314 287 302 63 358 255 231 241 210 205 220 168 279 277 258 216 233 228 214 215 222 215 219 215 261 252 253 259 275 331 67 299 266 307 318 136
349 356 358 357 360 352 325 15 350 276 285 60 330 271 308 241 289 275 177 187 226 226 245 252 231 232 246 233 206 179 211 209 226 231 254 249 287 51 302 227 353 355 12 3
343 351 355 354 356 352 333 13 4 319 304 324 349 305 289 289 275 261 84 180 220 230 226 245 244 250 233 233 242 198 201 212 227 234 246 243 36 285 261 33 12 359 2 18
339 344 349 350 354 348 339 288 54 328 267 349 326 290 294 294 330 321 274 320 288 238 252 233 261 245 233 273 234 221 256 231 268 261 235 81 43 38 35 358 358 348 352 20
333 337 339 346 348 346 336 317 328 273 258 243 221 202 190 229 247 288 292 194 3 283 341 317 283 264 318 232 235 266 213 235 266 306 176 82 35 68 40 10 358 336 337 75
318 332 332 338 338 337 329 301 343 278 290 277 115 134 208 145 232 228 246 301 320 284 275 268 279 277 256 275 347 297 72 17 241 257 76 303 80 36 18 6 12 5 47 52
308 316 323 326 329 326 297 266 268 296 307 331 7 160 132 176 187 213 220 244 273 273 237 237 251 257 349 262 279 270 294 13 315 36 17 347 24 12 7 2 21 20 61 79
301 306 312 315 319 316 282 199 153 270 309 275 244 99 170 157 177 190 197 221 236 255 264 265 273 90 319 271 241 227 108 31 15 27 342 344 295 357 345 344 351 35 84 89
295 300 303 302 301 286 308 356 3 330 293 250 249 174 156 163 173 187 202 202 234 238 243 245 274 233 188 256 269 112 16 348 11 335 313 277 5 4 15 343 64 211 93 106
294 298 296 289 279 265 258 342 209 287 271 266 271 141 166 187 197 187 203 205 217 213 251 255 228 238 204 257 265 274 161 237 299 289 317 308 325 289 358 338 197 172 130 130
298 301 300 234 225 226 67 124 184 235 286 281 247 323 107 177 233 102 240 256 215 215 214 227 251 232 230 231 233 259 289 332 323 309 289 280 289 30 358 326 273 197 151 131
299 274 212 176 84 121 173 178 209 201 195 241 262 1 191 212 233 222 143 257 267 239 261 244 231 238 251 235 213 302 341 322 290 289 272 259 353 133 265 329 318 254 145 155
214 224 124 122 128 217 229 235 212 195 222 200 254 312 151 139 267 321 145 223 231 245 197 240 220 230 194 172 94 278 274 267 276 290 295 292 282 209 242 195 293 289 141 173
353 297 252 193 190 226 248 230 196 234 202 251 255 179 210 258 288 187 265 261 284 267 141 265 248 70 50 43 36 359 316 280 282 291 287 288 285 277 261 275 206 232 187 171
220 226 206 150 227 252 238 186 176 222 154 249 229 224 212 258 287 245 225 238 234 349 201 218 57 114 76 37 353 329 310 288 284 284 286 278 272 260 263 247 252 209 207 154
233 177 293 226 200 229 137 221 36 157 173 228 271 207 245 220 211 238 243 222 312 257 252 60 133 70 343 331 311 310 307 311 307 296 291 293 277 270 262 256 247 226 188 181
234 215 230 212 236 76 111 236 159 133 206 298 292 285 259 256 276 229 296 242 228 212 56 132 67 330 306 293 312 304 308 299 289 288 294 290 290 290 270 248 249 226 201 187
254 233 249 244 171 223 192 171 176 192 19 297 234 247 236 242 258 258 246 291 349 64 330 316 346 329 299 291 299 282 278 280 277 271 283 283 279 270 265 207 217 192 140 160
237 227 256 236 224 238 86 69 77 257 47 324 312 258 222 273 263 266 305 4 12 22 351 342 351 333 316 302 298 281 281 269 266 267 269 265 252 237 146 79 48 95 91 101